Weather in Isa

Russia / Amur Oblast     51°45′22″N   131°01′46″E
temp.,
°C
wind,
m/s
gust,
m/s
humid.,
%
clouds,
%
prec.,
mm/h
press.,
hPa
HPBL,
m
16 april, fri
fri1600:00−6ese217695 0.0 101517
03:00−5ese2270100 0.0 101436
06:00−5e2267100 0.0 101445
09:00+1ene2447100 0.0 1013373
12:00+3ne2354100 0.0 10121055
15:00+3ene3482100 0.8 1011640
18:00+2ene2394100 0.1 1012202
21:000ene1299100 0.6 101271
17 april, sat
sat1700:00−1ne2499100 0.4 1012108
03:00−1e119877 0.9 101135
06:000ne1197100 0.1 101158
09:00+2ne1191100 0.1 1012151
12:00+6sw017477 0.0 1011697
15:00+6wnw1280100 0.1 1011415
18:00+5ssw1187100 0.1 101215
21:00+2sse22938 0.1 101425
18 april, sun
sun1800:00−1sse219436 0.0 101412
03:00−2sse22935 0.0 101413
06:00−1sse21915 0.0 101519
09:00+7s12641 0.0 1013518
12:00+10s22535 0.0 10111335
15:00+11se11485 0.0 10091437
18:00+8ese22684 0.0 100985
21:00+3ese11791 0.0 101010
19 april, mon
mon1900:00+2ese218218 0.0 101010
03:00+1ese11835 0.0 100910
06:00+1se11815 0.0 100811
09:00+9sse00585 0.0 1007441
12:00+12nw23456 0.0 10051541
15:00+13nw464094 0.0 10032264
18:00+5nw6116999 0.0 1006693
21:00+1nw6126191 0.2 1010881
20 april, tue
tue2000:00−3nw6126264 0.0 1012836
03:00−5nw512565 0.0 10141031
06:00−6nw613495 0.0 10131215
09:00−2nw711375 0.0 10131352
12:00+2nw7103045 0.0 10131846
15:00+5nw68240 0.0 10131720
18:00+4nw47250 0.0 10141274
21:00−1nnw003670 0.0 101610